Flag for Canada Weather past 2 weeks in Ottawa, Ontario, Canada

Now
46 °F

Mostly cloudy.


Feels Like: 39 °F
Forecast: 47 / 57 °F
Wind: 17 mph from West

Location: Ottawa Int'L. Ont.

Current Time: Sep 22, 2014 at 6:36:00 AM

Latest Report: Sep 22, 2014 at 6:00 AM


Visibility: 10 mi

Pressure: 29.72 "Hg

Humidity: 93%

Dew point: 45 °F

Location of OttawaLocation

Historic Weather in Ottawa — Graph

°F

Ottawa temperature yesterday

Maximum temperature yesterday: 73 °F (at 5:00 PM)
Minimum temperature yesterday: 52 °F (at 11:00 PM)
Average temperature yesterday: 64 °F

Past Weeks' High & Low Weather Summary

 TemperatureHumidityPressure
High75 °F (Sep 8, 2:00 PM)100% (Sep 7, 6:00 AM)30.42 "Hg (Sep 7, 6:00 AM)
Low34 °F (Sep 19, 5:00 AM)38% (Sep 19, 4:00 PM)29.46 "Hg (Sep 21, 5:00 PM)
Average55 °F78%30.06 "Hg
* Reported Sep 7 5:00 AM — Sep 22 5:00 AM, Ottawa, Weather by CustomWeather, © 2014

Note: Actual official high and low records may vary slightly from our data, if they occured in-between our weather recording intervals... More about our weather records

Advertising

Ottawa weather history for previous 24 hours

 ConditionsComfort  
Time TempWeatherWind HumidityBarometerVisibility
5:00 AM
Sep 22
46 °FDrizzle. Mostly cloudy.18 mph93%29.68 "Hg10 mi
4:00 AM48 °FOvercast.20 mph82%29.65 "Hg10 mi
3:00 AM48 °FMostly cloudy.16 mph87%29.64 "Hg10 mi
2:00 AM48 °FOvercast.16 mph94%29.62 "Hg10 mi
1:00 AM50 °FPartly cloudy.21 mph88%29.61 "Hg10 mi
12:00 AM50 °FDrizzle. Fog.14 mph94%29.60 "Hg3 mi
11:00 PM
Sep 21
52 °FDrizzle. Fog.16 mph94%29.59 "Hg4 mi
10:47 PM54 °FDrizzle. Fog.16 mph88%29.59 "Hg4 mi
10:00 PM54 °FLow clouds.13 mph100%29.59 "Hg15 mi
9:00 PM55 °FDrizzle. Low clouds.16 mph94%29.58 "Hg8 mi
8:00 PM57 °FLow clouds.13 mph94%29.57 "Hg15 mi
7:00 PM68 °FBroken clouds.20 mph78%29.52 "Hg15 mi
6:00 PM72 °FScattered clouds.9 mph73%29.48 "Hg15 mi
5:00 PM73 °FScattered clouds.12 mph74%29.46 "Hg15 mi
4:00 PM72 °FScattered clouds.9 mph88%29.48 "Hg15 mi
3:00 PM68 °FBroken clouds.12 mph94%29.50 "Hg15 mi
2:00 PM64 °FLight rain. More clouds than sun.10 mph94%29.54 "Hg10 mi
1:00 PM64 °FLight rain. Fog.7 mph94%29.57 "Hg4 mi
12:00 PM64 °FRain. Fog.8 mph94%29.61 "Hg1 mi
11:00 AM64 °FLight rain. Fog.7 mph94%29.63 "Hg2 mi
10:00 AM66 °FPartly sunny.12 mph83%29.67 "Hg15 mi
9:00 AM66 °FPartly sunny.9 mph83%29.67 "Hg15 mi
8:00 AM64 °FMostly cloudy.10 mph88%29.68 "Hg15 mi
7:00 AM64 °FPassing clouds.12 mph88%29.67 "Hg15 mi
6:00 AM66 °FPassing clouds.14 mph78%29.65 "Hg15 mi
Weather by CustomWeather, © 2014

See weather overviewHow to use our weather pages